#timestamp,LO_Frequency,Hit,StdDev 
1665849615.9,286046997.2,N
1665849635.7,286046999.4,N
1665849655.5,286047001.2,N
1665849675.4,286046999.8,N
1665849695.2,286046999.9,N
1665849715.1,286047002.7,N
1665849716.0,286047002.7,N
1665849735.8,286046999.4,N
1665849755.6,286046999.0,N
1665849775.5,286046999.4,N
1665849795.3,286047000.9,N
1665849815.1,286047002.7,N
1665849835.9,286047001.1,N
1665849855.7,286047000.7,N
1665849875.6,286047002.3,N
1665849895.4,286046998.9,N
1665849915.2,286046997.7,N
1665849935.1,286046997.2,N
1665849936.0,286046997.2,N
1665849955.8,286046996.8,N
1665849975.6,286046998.3,N
1665849995.5,286046997.7,N
1665850015.3,286046997.4,N
1665850035.1,286046999.9,N
1665850055.9,286046999.5,N
1665850075.7,286046996.5,N
1665850095.6,286046996.6,N
1665850115.4,286046999.4,N
1665850135.2,286046999.2,N
1665850155.1,286046997.0,N
1665850156.0,286046997.0,N
1665850175.8,286046997.5,N
1665850195.6,286046998.8,N
1665850215.5,286046997.8,N
1665850235.3,286046995.5,N
1665850255.2,286046997.4,N
1665850275.9,286046997.4,N
1665850295.7,286046995.0,N
1665850315.6,286046996.7,N
1665850335.4,286046999.1,N
1665850355.2,286046996.9,N
1665850375.1,286046999.6,N
1665850376.0,286046999.6,N
1665850395.8,286046994.9,Y
1665850415.7,286046996.6,P
1665850435.5,286046998.3,N
1665850455.3,286046998.6,N
1665850475.2,286046999.3,N
1665850495.0,286046995.2,Y
1665850495.9,286046995.2,P
1665850515.7,286046998.8,N
1665850535.6,286046999.1,N
1665850555.4,286047006.0,Y
1665850575.3,286047000.4,P
1665850595.1,286047001.3,N
1665850596.0,286047001.3,N
1665850615.8,286047003.5,N
1665850635.7,286047003.9,N
1665850655.5,286047000.2,N
1665850675.3,286047003.2,N
1665850695.2,286047001.9,N
1665850715.0,286047001.9,N
1665850715.9,286047001.9,N
1665850735.8,286047003.3,N
1665850755.6,286047004.9,N
1665850775.4,286047003.9,N
1665850795.3,286047003.3,N
1665850815.1,286047005.3,N
1665850835.8,286047004.4,N
1665850855.7,286047003.7,N
1665850875.5,286047003.7,N
1665850895.4,286047000.0,N
1665850915.2,286046998.5,N
1665850935.0,286047002.5,N
1665850935.9,286047002.5,N
1665850955.8,286047001.3,N
1665850975.6,286047004.4,N
1665850995.4,286047003.4,N
1665851015.3,286047000.7,N
1665851035.1,286047003.9,N
1665851055.9,286047004.7,N
1665851075.7,286047004.5,N
1665851095.5,286047005.4,N
1665851115.4,286047004.5,N
1665851135.2,286047005.0,N
1665851155.0,286047004.2,N
1665851155.9,286047004.2,N
1665851175.8,286047001.3,N
1665851195.6,286047001.4,N
1665851215.5,286047005.5,Y
1665851235.3,286047002.4,P
1665851255.1,286047000.5,N
1665851275.9,286047000.0,N
1665851295.7,286046998.1,N
1665851315.5,286046998.5,N
1665851335.4,286047001.6,N
1665851355.2,286047000.7,N
1665851375.1,286047001.8,N
1665851376.0,286047001.8,N
1665851395.8,286047000.5,N
1665851415.6,286047004.0,N
1665851435.5,286047000.6,N
1665851455.3,286046997.6,N
1665851475.1,286046996.8,N
1665851495.9,286047001.6,N
1665851515.7,286046998.5,N
1665851535.6,286047002.6,N
1665851555.4,286047001.5,N
1665851575.2,286046999.0,N
1665851595.1,286046999.2,N
1665851596.0,286046999.2,N
1665851615.8,286047000.7,N
1665851635.6,286046997.9,N
1665851655.5,286047000.7,N
1665851675.3,286047002.7,N
1665851695.1,286046998.7,N
1665851715.9,286046998.5,N
1665851735.7,286047004.2,N
1665851755.6,286047002.3,N
1665851775.4,286047000.0,N
1665851795.2,286047000.0,N
1665851815.1,286046998.9,N
1665851816.0,286046998.9,N
1665851835.8,286046998.2,N
1665851855.6,286047000.3,N
1665851875.5,286046998.9,N
1665851895.3,286046998.2,N
1665851915.2,286046998.1,N
1665851935.9,286047000.7,N
1665851955.7,286046999.0,N
1665851975.6,286046997.9,N
1665851995.4,286046996.5,N
1665852015.2,286046998.0,N
1665852035.1,286046994.9,N
1665852036.0,286046994.9,N
1665852055.8,286046997.0,N
1665852075.7,286047002.8,N
1665852095.5,286047000.3,N
1665852115.3,286046999.6,N
1665852135.2,286046998.6,N
1665852155.0,286046997.1,N
1665852155.9,286046997.1,N
1665852175.7,286046998.4,N
1665852195.6,286046998.8,N
1665852215.4,286046999.3,N
1665852235.3,286046997.7,N
1665852255.1,286046998.1,N
1665852256.0,286046998.1,N
1665852275.8,286046997.0,N
1665852295.7,286046997.1,N
1665852315.5,286046996.9,N
1665852335.3,286046998.7,N
1665852355.2,286046997.2,N
1665852375.0,286046999.3,N
1665852375.9,286046999.3,N
1665852395.8,286047000.9,N
1665852415.6,286046996.6,N
1665852435.4,286046998.4,N
1665852455.3,286047002.4,N
1665852475.1,286046998.4,N
1665852495.8,286046999.0,N
1665852515.7,286046996.8,N
1665852535.5,286046999.4,N
1665852555.4,286046998.5,N
1665852575.2,286046999.1,N
1665852595.0,286047003.6,N
1665852595.9,286047003.6,N
1665852615.8,286046999.3,N
1665852635.6,286047002.4,N
1665852655.4,286047001.3,N
1665852675.3,286047001.2,N
1665852695.1,286046996.5,N
1665852715.8,286046998.9,N
1665852735.7,286046998.9,N
1665852755.5,286047000.4,N
1665852775.4,286047000.9,N
1665852795.2,286046999.0,N
1665852815.0,286046999.8,N
1665852815.9,286046999.8,N
1665852835.8,286047000.6,N
1665852855.6,286047002.0,N
1665852875.4,286046997.7,N
1665852895.3,286047003.0,N
1665852915.1,286047003.8,N
1665852935.9,286046998.5,N
1665852955.7,286047001.5,N
1665852975.5,286046996.7,N
1665852995.4,286047001.5,N
1665853015.2,286047001.9,N
1665853035.0,286047002.8,N
1665853035.9,286047002.8,N
1665853055.8,286047000.0,N
1665853075.6,286047000.0,N
1665853095.5,286047001.5,N
1665853115.3,286047001.4,N
1665853135.1,286047001.9,N
1665853155.9,286047001.3,N
1665853175.7,286047001.4,N
1665853195.5,286047004.0,N
